Date String (YYYY-MM-DD hh:mm:ss) UTC,Instrument flags,Ambient pressure (hPa),Sample flow (lpm),Bypass flow (lpm),Sample temperature (°C),Ambient temperature (°C),ASC tube jacket temperature (°C),LED temperature (°C),Box temperature (°C),Sample RH (%),Span deviation,Mass concentration (μg/m³),Mass concentration (μg/m³),Mass concentration (μg/m³)
DateTimeUTC,F1_M11,P_M11,Q1_M11,Q2_M11,T1_M11,T2_M11,T3_M11,T4_M11,T5_M11,U1_M11,ZSPAN_M11,X2_M11,X0_M11,X1_M11
2021-09-24 00:00:00,,0828.0,5.00,0.00,29.3,28.0,00.0,38.3,31.1,11.4,0001.8,0024.16,0041.63,0021.94
2021-09-24 00:01:00,,0828.0,4.99,0.00,29.3,28.2,00.0,38.3,31.2,11.4,0001.7,0024.12,0041.95,0021.91
2021-09-24 00:02:00,,0828.0,5.00,0.00,29.4,28.4,00.0,38.3,31.3,11.3,0001.8,0024.10,0042.85,0021.90
2021-09-24 00:03:00,,0828.0,5.01,0.00,29.4,28.6,00.0,38.3,31.3,11.2,0001.9,0024.05,0042.37,0021.91
2021-09-24 00:04:00,,0828.1,4.99,0.00,29.5,28.7,00.0,38.4,31.4,11.2,0001.8,0024.02,0041.55,0021.93
2021-09-24 00:05:00,,0828.1,5.00,0.00,29.5,28.9,00.0,38.4,31.4,11.1,0001.9,0023.98,0041.00,0021.96
2021-09-24 00:06:00,,0828.1,5.01,0.00,29.6,28.0,00.0,38.4,31.2,11.1,0001.9,0023.95,0040.11,0021.99
2021-09-24 00:07:00,,0828.1,4.99,0.00,29.4,26.0,00.0,38.4,30.8,11.2,0002.0,0023.94,0039.40,0021.99
2021-09-24 00:08:00,,0828.1,5.00,0.00,29.3,25.6,00.0,38.4,30.6,11.2,0002.1,0024.05,0038.72,0022.01
2021-09-24 00:09:00,,0828.1,5.01,0.00,29.2,26.0,00.0,38.4,30.7,11.3,0002.0,0024.05,0038.77,0022.03
2021-09-24 00:10:00,,0828.1,4.99,0.00,29.1,26.5,00.0,38.3,30.8,11.3,0002.1,0024.08,0038.14,0022.10
2021-09-24 00:11:00,,0828.1,5.00,0.00,29.2,27.0,00.0,38.3,30.9,11.3,0002.2,0024.12,0038.37,0022.14
2021-09-24 00:12:00,,0828.1,4.99,0.00,29.2,27.4,00.0,38.3,31.0,11.2,0002.2,0024.14,0038.08,0022.18
2021-09-24 00:13:00,,0828.2,5.01,0.00,29.2,27.7,00.0,38.3,31.1,11.1,0002.0,0024.16,0037.29,0022.21
2021-09-24 00:14:00,,0828.2,5.00,0.00,29.3,28.0,00.0,38.3,31.1,11.1,0001.8,0024.19,0037.03,0022.20
2021-09-24 00:15:00,,0828.2,4.99,0.00,29.3,28.2,00.0,38.3,31.2,11.1,0001.8,0024.21,0036.88,0022.24
2021-09-24 00:16:00,,0828.2,5.00,0.00,29.4,28.4,00.0,38.3,31.3,11.0,0001.6,0024.19,0037.20,0022.26
2021-09-24 00:17:00,,0828.3,5.01,0.00,29.4,28.6,00.0,38.4,31.3,11.0,0001.6,0024.25,0037.79,0022.28
2021-09-24 00:18:00,,0828.3,4.98,0.00,29.5,28.7,00.0,38.4,31.4,11.0,0001.5,0024.29,0037.74,0022.32
2021-09-24 00:19:00,,0828.3,5.02,0.00,29.5,28.9,00.0,38.4,31.5,10.9,0001.3,0024.25,0037.26,0022.35
2021-09-24 00:20:00,,0828.3,4.99,0.00,29.6,28.6,00.0,38.5,31.4,11.0,0001.3,0024.22,0036.61,0022.34
2021-09-24 00:21:00,,0828.4,5.00,0.00,29.5,26.6,00.0,38.5,30.9,11.1,0001.3,0024.22,0036.60,0022.31
2021-09-24 00:22:00,,0828.3,4.99,0.00,29.3,25.4,00.0,38.4,30.6,11.3,0001.2,0024.22,0035.94,0022.31
2021-09-24 00:23:00,,0828.3,5.00,0.00,29.2,25.7,00.0,38.4,30.7,11.3,0001.1,0024.20,0036.22,0022.28
2021-09-24 00:24:00,,0828.4,5.02,0.00,29.2,26.2,00.0,38.4,30.7,11.6,0001.2,0024.18,0036.23,0022.24
2021-09-24 00:25:00,,0828.4,4.99,0.00,29.2,26.7,00.0,38.3,30.8,11.8,0001.4,0024.14,0036.45,0022.19
2021-09-24 00:26:00,,0828.5,5.01,0.00,29.2,27.2,00.0,38.3,30.9,11.6,0001.3,0024.08,0036.97,0022.14
2021-09-24 00:27:00,,0828.5,4.99,0.00,29.2,27.5,00.0,38.3,31.0,11.4,0001.3,0024.12,0037.20,0022.11
2021-09-24 00:28:00,,0828.5,4.99,0.00,29.3,27.8,00.0,38.3,31.1,11.6,0001.3,0024.03,0036.67,0022.04
2021-09-24 00:29:00,,0828.5,5.00,0.00,29.3,28.1,00.0,38.3,31.1,12.2,0001.5,0023.92,0038.06,0021.94
2021-09-24 00:30:00,,0828.7,5.01,0.00,29.3,28.3,00.0,38.3,31.2,12.1,0001.7,0023.75,0038.12,0021.75
2021-09-24 00:31:00,,0828.8,5.00,0.00,29.4,28.5,00.0,38.4,31.3,11.8,0001.9,0023.58,0038.90,0021.57
2021-09-24 00:32:00,,0829.1,5.00,0.00,29.5,28.6,00.0,38.4,31.3,11.6,0001.8,0023.45,0038.60,0021.44
2021-09-24 00:33:00,,0829.1,5.01,0.00,29.5,28.7,00.0,38.4,31.4,11.6,0001.6,0023.29,0039.34,0021.30
2021-09-24 00:34:00,,0828.9,5.00,0.00,29.6,28.8,00.0,38.4,31.4,11.4,0001.6,0023.18,0039.44,0021.18
2021-09-24 00:35:00,,0828.9,4.99,0.00,29.6,28.5,00.0,38.5,31.4,11.3,0001.4,0023.13,0040.70,0021.13
2021-09-24 00:36:00,,0829.0,5.01,0.00,29.5,26.5,00.0,38.5,30.8,11.1,0001.1,0023.12,0041.35,0021.09
2021-09-24 00:37:00,,0828.8,4.99,0.00,29.3,25.4,00.0,38.4,30.5,11.2,0001.1,0023.09,0040.85,0021.07
2021-09-24 00:38:00,,0828.9,5.01,0.00,29.2,25.7,00.0,38.4,30.5,11.2,0001.3,0023.06,0040.52,0021.04
2021-09-24 00:39:00,,0828.7,4.99,0.00,29.1,26.2,00.0,38.4,30.7,11.2,0001.1,0023.07,0040.56,0021.01
2021-09-24 00:40:00,,0828.9,5.00,0.00,29.1,26.7,00.0,38.3,30.8,11.2,0000.7,0023.07,0039.35,0021.01
2021-09-24 00:41:00,,0829.2,5.01,0.00,29.1,27.1,00.0,38.3,30.9,11.2,0000.3,0023.12,0039.36,0021.08
2021-09-24 00:42:00,,0829.0,4.99,0.00,29.2,27.5,00.0,38.3,30.9,11.1,0000.1,0023.24,0038.80,0021.21
2021-09-24 00:43:00,,0829.2,5.01,0.00,29.2,27.8,00.0,38.3,31.0,11.0,0000.2,0023.31,0038.80,0021.30
2021-09-24 00:44:00,,0828.9,4.99,0.00,29.3,28.0,00.0,38.3,31.1,11.0,0000.2,0023.46,0038.12,0021.41
2021-09-24 00:45:00,,0828.8,4.99,0.00,29.3,28.2,00.0,38.3,31.2,11.1,0000.2,0023.59,0038.01,0021.49
2021-09-24 00:46:00,,0828.7,5.01,0.00,29.4,28.4,00.0,38.3,31.2,11.2,0000.2,0023.57,0036.87,0021.49
2021-09-24 00:47:00,,0828.6,4.99,0.00,29.4,28.5,00.0,38.4,31.3,11.2,0000.3,0023.52,0036.35,0021.45
2021-09-24 00:48:00,,0828.7,5.01,0.00,29.5,28.7,00.0,38.4,31.4,11.1,0000.0,0023.44,0037.66,0021.36
2021-09-24 00:49:00,,0828.7,4.98,0.00,29.5,28.8,00.0,38.4,31.4,10.9,-000.1,0023.39,0039.38,0021.29
2021-09-24 00:50:00,,0828.7,5.01,0.00,29.6,28.8,00.0,38.4,31.4,11.0,0000.1,0023.31,0040.76,0021.20
2021-09-24 00:51:00,,0829.0,4.99,0.00,29.5,27.5,00.0,38.5,31.1,10.8,0000.4,0023.22,0041.17,0021.13
2021-09-24 00:52:00,,0829.1,5.01,0.00,29.4,26.3,00.0,38.5,30.8,10.9,0000.7,0023.19,0041.56,0021.08
2021-09-24 00:53:00,,0829.2,5.00,0.00,29.3,26.5,00.0,38.4,30.9,11.0,0001.1,0022.94,0042.04,0020.79
2021-09-24 00:54:00,,0828.9,5.00,0.00,29.3,26.9,00.0,38.4,31.0,11.1,0001.3,0022.47,0041.84,0020.34
2021-09-24 00:55:00,,0828.7,5.01,0.00,29.3,27.3,00.0,38.4,31.0,11.1,0001.5,0022.03,0042.23,0019.92
2021-09-24 00:56:00,,0828.7,5.00,0.00,29.3,27.6,00.0,38.4,31.1,11.1,0001.6,0021.50,0041.92,0019.51
2021-09-24 00:57:00,,0828.7,5.00,0.00,29.4,27.9,00.0,38.4,31.1,11.1,0001.8,0020.93,0040.75,0019.03
2021-09-24 00:58:00,,0829.2,4.99,0.00,29.4,28.2,00.0,38.4,31.2,11.2,0001.8,0020.38,0039.89,0018.54
2021-09-24 00:59:00,,0829.4,5.01,0.00,29.4,28.4,00.0,38.4,31.3,11.5,0001.9,0020.01,0037.77,0018.18
